Flag for Switzerland Weather past 2 weeks in Steffisburg, Bern, Switzerland

Now
43 °F

Clear.


Feels Like: 43 °F
Forecast: 33 / 63 °F
Wind: 2 mph from North

Location: Bern / Belp

Current Time: Apr 18, 2015 at 11:52:21 PM

Latest Report: Apr 18, 2015 at 11:20 PM


Visibility: 10 mi

Pressure: 30.07 "Hg

Humidity: 61%

Dew point: 30 °F

Location of SteffisburgLocation

Historic Weather in Steffisburg — Graph

°F

Steffisburg temperature yesterday

Maximum temperature yesterday: 61 °F (at 4:20 PM)
Minimum temperature yesterday: 46 °F (at 6:50 AM)
Average temperature yesterday: 53 °F

Past Weeks' High & Low Weather Summary

 TemperatureHumidityPressure
High75 °F (Apr 15, 6:50 PM)100% (Apr 3, 11:50 PM)30.48 "Hg (Apr 3, 11:50 PM)
Low25 °F (Apr 6, 3:50 AM)17% (Apr 14, 6:20 PM)29.80 "Hg (Apr 4, 4:50 PM)
Average48 °F68%30.22 "Hg
* Reported Apr 3 10:20 PM — Apr 18 10:20 PM, Steffisburg, Weather by CustomWeather, © 2015

Note: Actual official high and low records may vary slightly from our data, if they occured in-between our weather recording intervals... More about our weather records

Advertising

Steffisburg weather history for previous 24 hours

 ConditionsComfort  
Time TempWeatherWind HumidityBarometerVisibility
10:20 PM
Sat, Apr 18
43 °FClear.3 mph66%30.07 "Hg10 mi
9:50 PM43 °FClear.3 mph66%30.07 "Hg10 mi
9:20 PM45 °FSunny.3 mph61%30.07 "Hg10 mi
8:50 PM46 °FPassing clouds.6 mph57%30.07 "HgN/A
8:20 PM48 °FPassing clouds.7 mph54%30.09 "HgN/A
7:50 PM50 °FPassing clouds.7 mph54%30.09 "HgN/A
7:20 PM50 °FScattered clouds.7 mph58%30.09 "HgN/A
6:50 PM50 °FScattered clouds.7 mph58%30.09 "HgN/A
6:20 PM50 °FPartly sunny.8 mph58%30.09 "HgN/A
5:50 PM50 °FPartly sunny.9 mph58%30.09 "HgN/A
5:20 PM50 °FPartly sunny.10 mph58%30.09 "HgN/A
4:50 PM50 °FOvercast.7 mph62%30.09 "HgN/A
4:20 PM50 °FPartly sunny.10 mph62%30.09 "HgN/A
3:50 PM50 °FBroken clouds.9 mph67%30.09 "HgN/A
3:20 PM52 °FBroken clouds.10 mph62%30.09 "HgN/A
2:50 PM50 °FBroken clouds.8 mph67%30.09 "HgN/A
2:20 PM50 °FBroken clouds.7 mph67%30.12 "HgN/A
1:50 PM48 °FPartly sunny.7 mph71%30.12 "HgN/A
1:20 PM46 °FPartly sunny.10 mph76%30.12 "HgN/A
12:50 PM46 °FPartly sunny.10 mph82%30.12 "HgN/A
12:20 PM46 °FPartly sunny.10 mph76%30.12 "HgN/A
11:50 AM46 °FPartly sunny.8 mph82%30.12 "HgN/A
11:20 AM48 °FPartly sunny.8 mph82%30.09 "HgN/A
10:50 AM46 °FBroken clouds.7 mph87%30.09 "HgN/A
10:20 AM46 °FBroken clouds.6 mph82%30.09 "HgN/A
9:50 AM45 °FBroken clouds.8 mph93%30.09 "HgN/A
9:20 AM45 °FBroken clouds.2 mph87%30.07 "HgN/A
8:50 AM45 °FBroken clouds.3 mph87%30.07 "Hg4 mi
8:20 AM45 °FBroken clouds.5 mph87%30.07 "Hg4 mi
7:50 AM46 °FBroken clouds.2 mph87%30.07 "HgN/A
7:20 AM46 °FPartly cloudy.5 mph87%30.07 "HgN/A
6:50 AM46 °FPassing clouds.3 mph87%30.04 "HgN/A
6:20 AM46 °FPartly cloudy.5 mph87%30.04 "HgN/A
5:50 AM46 °FPartly cloudy.5 mph93%30.04 "HgN/A
5:20 AM48 °FPartly cloudy.3 mph87%30.04 "HgN/A
4:50 AM48 °FPartly cloudy.5 mph94%30.04 "HgN/A
4:20 AM48 °FPartly cloudy.5 mph100%30.04 "HgN/A
3:50 AM48 °FDrizzle. Overcast.2 mph100%30.04 "HgN/A
3:20 AM48 °FPassing clouds.2 mph100%30.04 "HgN/A
2:50 AM48 °FLight rain. Passing clouds.1 mph100%30.04 "Hg6 mi
2:20 AM48 °FLight rain. Passing clouds.1 mph100%30.04 "Hg6 mi
1:50 AM48 °FRain. Passing clouds.2 mph100%30.04 "Hg3 mi
1:20 AM50 °FLight rain. Partly cloudy.3 mph94%30.04 "HgN/A
12:50 AM50 °FRain. Partly cloudy.3 mph94%30.04 "HgN/A
12:20 AM50 °FHeavy rain. Passing clouds.3 mph94%30.04 "Hg4 mi
11:50 PM
Fri, Apr 17
52 °FLight rain. Partly cloudy.3 mph94%30.01 "Hg6 mi
11:20 PM52 °FLight rain. Partly cloudy.5 mph94%30.01 "Hg5 mi
Weather by CustomWeather, © 2015

See weather overviewHow to use our weather pages